{"data":{"norad_id":62712,"intl_designator":"2025-009DH","name":"LEMUR-2-MYNAMEISJEFF","alt_names":[],"object_type":"PAYLOAD","status":"ACTIVE","operator":null,"country":"US","launch_date":"2025-01-14","launch_site_code":"AFWTR","launch_vehicle":null,"mission":null,"orbit_class":"UNKNOWN","rcs_meters":null,"size_class":null,"mass_kg":null,"dimensions":null,"purposes":["earth_obs"],"wikipedia_slug":null,"has_3d_model":false,"image_url":null,"decayed_at":null,"tle_current":{"epoch":"2026-09-19T11:17:20.746464Z","epoch_age_seconds":103480,"freshness":"FRESH","line1":"1 62712U 25009DH  26262.47037901  .00004739  00000+0  33769-3 0  9996","line2":"2 62712  97.7231 345.5136 0002143 192.0283 168.0893 15.05069080 91808","mean_motion":15.0506908,"eccentricity":0.0002143,"inclination_deg":97.7231,"raan_deg":345.5136,"arg_perigee_deg":192.0283,"mean_anomaly_deg":168.0893,"bstar":0.00033769,"rev_number":9180,"period_min":95.676671531914,"perigee_km":549.80866468111,"apogee_km":552.77861865412,"semimajor_km":6929.4306416676,"source":"CELESTRAK","updated_at":"2026-09-20T09:00:34.873921Z"}}}